sat.trackr.live / text

‹ back to catalog

STARLINK-30445

NORAD 57873 · 2023-144K

PAYLOAD ACTIVE UNKNOWN

§ Identity

Operator
Country
US
Launch date
2023-09-16
Launch site
AFETR
Launch vehicle
Mass (kg)
RCS (m²)

Purposes: comms

External: N2YO · Heavens-Above · Gunter

§ Orbital elements

Epoch: 2026-05-24T21:53:22.658784Z

Period
94.27 min
Inclination
43.0035°
Eccentricity
0.0001383
Mean motion
15.27576995 rev/d
Perigee alt
482.1 km
Apogee alt
484.0 km
Semi-major
6,861.2 km
B*
2.3422e-5
RAAN
214.8302°
Arg perigee
281.2522°
Mean anomaly
78.8174°
Rev number
14,925

§ Raw data

STARLINK-304451 57873U 23144K   26144.91206781  .00000382  00000+0  23422-4 0  99942 57873  43.0035 214.8302 0001383 281.2522  78.8174 15.27576995149256

JSON: /api/v1/satellites/57873 · /tle

For live sub-satellite position, see the globe view (requires WebGL).

§ Visibility from observer

Set your observer location to see the next 7 days of passes ≥ 10°. The values pass through the URL so the page stays shareable.

No JS? Fill the form by hand. The geolocation button needs JavaScript.